PRIVATE WETTERSTATION BILLIGHEIM-ALLFELD                       ZURCK
Wetterdaten: Mittwoch, 04.01.2017
Datum Zeit Temp. A. Temp. A. min Temp. A. max Feuchte A. Luftdruck Regen Wind Richtung Richtung Sonnenschein ET Solar Taupunkt Windchill Windben Empfang
04.01.2017 00:00 -1,4 C -1,4 C -1,4 C 92 % 1021,7 hPa 0,0 l/m 11,3 km/h (2 Bft) SW 225 0 min 0,000 mm 0 W/m -2,5 C -6,1 C 32,2 km/h (5 Bft) 98 %
04.01.2017 00:10 -1,5 C -1,5 C -1,4 C 92 % 1021,5 hPa 0,0 l/m 16,1 km/h (3 Bft) SW 225 0 min 0,000 mm 0 W/m -2,6 C -9,5 C 33,8 km/h (5 Bft) 98 %
04.01.2017 00:20 -1,6 C -1,6 C -1,5 C 92 % 1021,4 hPa 0,0 l/m 11,3 km/h (2 Bft) SW 225 0 min 0,000 mm 0 W/m -2,7 C -6,3 C 30,6 km/h (5 Bft) 98 %
04.01.2017 00:30 -1,5 C -1,6 C -1,5 C 92 % 1021,4 hPa 0,0 l/m 11,3 km/h (2 Bft) SW 225 0 min 0,000 mm 0 W/m -2,6 C -6,2 C 30,6 km/h (5 Bft) 98 %
04.01.2017 00:40 -1,6 C -1,6 C -1,5 C 92 % 1021,1 hPa 0,0 l/m 12,9 km/h (3 Bft) SW 225 0 min 0,000 mm 0 W/m -2,7 C -7,5 C 29,0 km/h (5 Bft) 98 %
04.01.2017 00:50 -1,6 C -1,6 C -1,6 C 92 % 1020,9 hPa 0,0 l/m 14,5 km/h (3 Bft) SW 225 0 min 0,000 mm 0 W/m -2,7 C -8,6 C 33,8 km/h (5 Bft) 97 %
04.01.2017 01:00 -1,7 C -1,7 C -1,6 C 92 % 1020,8 hPa 0,0 l/m 16,1 km/h (3 Bft) SW 225 0 min 0,000 mm 0 W/m -2,8 C -9,7 C 32,2 km/h (5 Bft) 98 %
04.01.2017 01:10 -1,7 C -1,7 C -1,7 C 92 % 1020,5 hPa 0,0 l/m 11,3 km/h (2 Bft) SW 225 0 min 0,000 mm 0 W/m -2,8 C -6,4 C 25,7 km/h (4 Bft) 97 %
04.01.2017 01:20 -1,8 C -1,8 C -1,7 C 92 % 1020,4 hPa 0,0 l/m 14,5 km/h (3 Bft) SW 225 0 min 0,000 mm 0 W/m -2,9 C -8,8 C 33,8 km/h (5 Bft) 98 %
04.01.2017 01:30 -1,8 C -1,8 C -1,8 C 92 % 1020,1 hPa 0,0 l/m 16,1 km/h (3 Bft) S-SW 202 0 min 0,000 mm 0 W/m -2,9 C -9,8 C 30,6 km/h (5 Bft) 98 %
04.01.2017 01:40 -1,8 C -1,8 C -1,8 C 92 % 1020,1 hPa 0,0 l/m 16,1 km/h (3 Bft) SW 225 0 min 0,000 mm 0 W/m -2,9 C -9,8 C 35,4 km/h (5 Bft) 97 %
04.01.2017 01:50 -1,7 C -1,8 C -1,7 C 93 % 1020,1 hPa 0,0 l/m 14,5 km/h (3 Bft) W-SW 247 0 min 0,000 mm 0 W/m -2,7 C -8,7 C 32,2 km/h (5 Bft) 98 %
04.01.2017 02:00 -1,6 C -1,7 C -1,6 C 93 % 1020,0 hPa 0,0 l/m 16,1 km/h (3 Bft) W-SW 247 0 min 0,000 mm 0 W/m -2,6 C -9,6 C 35,4 km/h (5 Bft) 87 %
04.01.2017 02:10 -1,5 C -1,6 C -1,5 C 92 % 1019,9 hPa 0,0 l/m 16,1 km/h (3 Bft) SW 225 0 min 0,000 mm 0 W/m -2,6 C -9,5 C 33,8 km/h (5 Bft) 98 %
04.01.2017 02:20 -1,4 C -1,5 C -1,4 C 92 % 1019,9 hPa 0,0 l/m 16,1 km/h (3 Bft) SW 225 0 min 0,000 mm 0 W/m -2,5 C -9,3 C 37,0 km/h (5 Bft) 97 %
04.01.2017 02:30 -1,4 C -1,4 C -1,4 C 92 % 1019,8 hPa 0,0 l/m 17,7 km/h (3 Bft) SW 225 0 min 0,000 mm 0 W/m -2,5 C -10,3 C 32,2 km/h (5 Bft) 98 %
04.01.2017 02:40 -1,4 C -1,4 C -1,4 C 92 % 1019,7 hPa 0,0 l/m 16,1 km/h (3 Bft) SW 225 0 min 0,000 mm 0 W/m -2,5 C -9,3 C 32,2 km/h (5 Bft) 97 %
04.01.2017 02:50 -1,3 C -1,4 C -1,3 C 93 % 1019,5 hPa 0,0 l/m 19,3 km/h (3 Bft) SW 225 0 min 0,000 mm 0 W/m -2,3 C -11,0 C 43,5 km/h (6 Bft) 97 %
04.01.2017 03:00 -1,3 C -1,3 C -1,3 C 93 % 1019,5 hPa 0,0 l/m 14,5 km/h (3 Bft) W-SW 247 0 min 0,000 mm 0 W/m -2,3 C -8,2 C 35,4 km/h (5 Bft) 98 %
04.01.2017 03:10 -1,3 C -1,3 C -1,3 C 93 % 1019,6 hPa 0,0 l/m 17,7 km/h (3 Bft) W-SW 247 0 min 0,000 mm 0 W/m -2,3 C -10,1 C 35,4 km/h (5 Bft) 97 %
04.01.2017 03:20 -1,3 C -1,3 C -1,2 C 93 % 1019,3 hPa 0,0 l/m 16,1 km/h (3 Bft) SW 225 0 min 0,000 mm 0 W/m -2,3 C -9,2 C 35,4 km/h (5 Bft) 89 %
04.01.2017 03:30 -1,3 C -1,3 C -1,2 C 93 % 1018,9 hPa 0,0 l/m 17,7 km/h (3 Bft) SW 225 0 min 0,000 mm 0 W/m -2,3 C -10,1 C 35,4 km/h (5 Bft) 97 %
04.01.2017 03:40 -1,3 C -1,3 C -1,2 C 93 % 1018,8 hPa 0,0 l/m 17,7 km/h (3 Bft) SW 225 0 min 0,000 mm 0 W/m -2,3 C -10,1 C 38,6 km/h (5 Bft) 98 %
04.01.2017 03:50 -1,3 C -1,3 C -1,3 C 93 % 1018,4 hPa 0,0 l/m 16,1 km/h (3 Bft) W-SW 247 0 min 0,000 mm 0 W/m -2,3 C -9,2 C 37,0 km/h (5 Bft) 97 %
04.01.2017 04:00 -1,4 C -1,4 C -1,3 C 92 % 1018,3 hPa 0,0 l/m 17,7 km/h (3 Bft) SW 225 0 min 0,000 mm 0 W/m -2,5 C -10,3 C 35,4 km/h (5 Bft) 97 %
04.01.2017 04:10 -1,4 C -1,4 C -1,4 C 92 % 1018,3 hPa 0,0 l/m 19,3 km/h (3 Bft) W-SW 247 0 min 0,000 mm 0 W/m -2,5 C -11,1 C 35,4 km/h (5 Bft) 98 %
04.01.2017 04:20 -1,4 C -1,4 C -1,4 C 92 % 1018,2 hPa 0,0 l/m 17,7 km/h (3 Bft) SW 225 0 min 0,000 mm 0 W/m -2,5 C -10,3 C 45,1 km/h (6 Bft) 97 %
04.01.2017 04:30 -1,4 C -1,4 C -1,4 C 92 % 1017,9 hPa 0,0 l/m 16,1 km/h (3 Bft) W-SW 247 0 min 0,000 mm 0 W/m -2,5 C -9,3 C 37,0 km/h (5 Bft) 98 %
04.01.2017 04:40 -1,4 C -1,4 C -1,4 C 93 % 1017,4 hPa 0,0 l/m 12,9 km/h (3 Bft) SW 225 0 min 0,000 mm 0 W/m -2,4 C -7,3 C 43,5 km/h (6 Bft) 88 %
04.01.2017 04:50 -1,3 C -1,4 C -1,3 C 92 % 1017,3 hPa 0,0 l/m 19,3 km/h (3 Bft) W-SW 247 0 min 0,000 mm 0 W/m -2,4 C -11,0 C 37,0 km/h (5 Bft) 98 %
04.01.2017 05:00 -1,3 C -1,3 C -1,3 C 92 % 1017,1 hPa 0,0 l/m 16,1 km/h (3 Bft) SW 225 0 min 0,000 mm 0 W/m -2,4 C -9,2 C 35,4 km/h (5 Bft) 97 %
04.01.2017 05:10 -1,2 C -1,3 C -1,2 C 92 % 1017,1 hPa 0,0 l/m 17,7 km/h (3 Bft) SW 225 0 min 0,000 mm 0 W/m -2,3 C -10,0 C 38,6 km/h (5 Bft) 97 %
04.01.2017 05:20 -1,2 C -1,2 C -1,2 C 92 % 1017,1 hPa 0,0 l/m 14,5 km/h (3 Bft) W-SW 247 0 min 0,000 mm 0 W/m -2,3 C -8,1 C 33,8 km/h (5 Bft) 98 %
04.01.2017 05:30 -1,1 C -1,2 C -1,1 C 92 % 1017,1 hPa 0,0 l/m 16,1 km/h (3 Bft) W-SW 247 0 min 0,000 mm 0 W/m -2,2 C -9,0 C 40,2 km/h (6 Bft) 97 %
04.01.2017 05:40 -1,1 C -1,2 C -1,1 C 92 % 1016,9 hPa 0,0 l/m 16,1 km/h (3 Bft) W-SW 247 0 min 0,000 mm 0 W/m -2,2 C -9,0 C 32,2 km/h (5 Bft) 98 %
04.01.2017 05:50 -1,1 C -1,1 C -1,1 C 92 % 1017,0 hPa 0,2 l/m 14,5 km/h (3 Bft) W-SW 247 0 min 0,000 mm 0 W/m -2,2 C -8,0 C 33,8 km/h (5 Bft) 97 %
04.01.2017 06:00 -1,1 C -1,1 C -1,1 C 92 % 1016,8 hPa 0,0 l/m 19,3 km/h (3 Bft) W-SW 247 0 min 0,000 mm 0 W/m -2,2 C -10,7 C 37,0 km/h (5 Bft) 98 %
04.01.2017 06:10 -1,0 C -1,1 C -1,0 C 93 % 1016,7 hPa 0,0 l/m 14,5 km/h (3 Bft) W-SW 247 0 min 0,000 mm 0 W/m -2,0 C -7,9 C 32,2 km/h (5 Bft) 97 %
04.01.2017 06:20 -0,9 C -1,0 C -0,9 C 93 % 1016,7 hPa 0,2 l/m 17,7 km/h (3 Bft) SW 225 0 min 0,000 mm 0 W/m -1,9 C -9,6 C 43,5 km/h (6 Bft) 98 %
04.01.2017 06:30 -0,9 C -0,9 C -0,9 C 92 % 1016,6 hPa 0,0 l/m 16,1 km/h (3 Bft) W 270 0 min 0,000 mm 0 W/m -2,0 C -8,7 C 37,0 km/h (5 Bft) 98 %
04.01.2017 06:40 -0,9 C -0,9 C -0,9 C 92 % 1016,3 hPa 0,0 l/m 14,5 km/h (3 Bft) SW 225 0 min 0,000 mm 0 W/m -2,0 C -7,8 C 32,2 km/h (5 Bft) 97 %
04.01.2017 06:50 -0,9 C -1,0 C -0,9 C 93 % 1016,2 hPa 0,2 l/m 16,1 km/h (3 Bft) SW 225 0 min 0,000 mm 0 W/m -1,9 C -8,7 C 45,1 km/h (6 Bft) 98 %
04.01.2017 07:00 -1,0 C -1,0 C -0,9 C 92 % 1016,3 hPa 0,0 l/m 16,1 km/h (3 Bft) SW 225 0 min 0,000 mm 0 W/m -2,1 C -8,9 C 38,6 km/h (5 Bft) 97 %
04.01.2017 07:10 -1,0 C -1,1 C -1,0 C 92 % 1016,2 hPa 0,0 l/m 14,5 km/h (3 Bft) SW 225 0 min 0,000 mm 0 W/m -2,1 C -7,9 C 38,6 km/h (5 Bft) 98 %
04.01.2017 07:20 -1,0 C -1,0 C -1,0 C 92 % 1015,8 hPa 0,2 l/m 17,7 km/h (3 Bft) W-SW 247 0 min 0,000 mm 0 W/m -2,1 C -9,8 C 37,0 km/h (5 Bft) 89 %
04.01.2017 07:30 -0,9 C -1,0 C -0,9 C 92 % 1015,9 hPa 0,0 l/m 16,1 km/h (3 Bft) W 270 0 min 0,000 mm 0 W/m -2,0 C -8,7 C 38,6 km/h (5 Bft) 98 %
04.01.2017 07:40 -0,9 C -0,9 C -0,9 C 92 % 1015,8 hPa 0,2 l/m 17,7 km/h (3 Bft) W-SW 247 0 min 0,000 mm 0 W/m -2,0 C -9,6 C 38,6 km/h (5 Bft) 98 %
04.01.2017 07:50 -0,9 C -0,9 C -0,9 C 92 % 1015,5 hPa 0,2 l/m 16,1 km/h (3 Bft) SW 225 0 min 0,000 mm 0 W/m -2,0 C -8,7 C 33,8 km/h (5 Bft) 97 %
04.01.2017 08:00 -0,9 C -0,9 C -0,8 C 92 % 1015,7 hPa 0,2 l/m 16,1 km/h (3 Bft) W 270 0 min 0,000 mm 0 W/m -2,0 C -8,7 C 40,2 km/h (6 Bft) 98 %
04.01.2017 08:10 -0,8 C -0,9 C -0,8 C 92 % 1015,6 hPa 0,2 l/m 12,9 km/h (3 Bft) W-SW 247 0 min 0,000 mm 0 W/m -1,9 C -6,6 C 29,0 km/h (5 Bft) 97 %
04.01.2017 08:20 -0,8 C -0,8 C -0,8 C 92 % 1015,9 hPa 0,0 l/m 19,3 km/h (3 Bft) W-SW 247 0 min 0,000 mm 0 W/m -1,9 C -10,3 C 40,2 km/h (6 Bft) 98 %
04.01.2017 08:30 -0,8 C -0,8 C -0,8 C 92 % 1015,6 hPa 0,2 l/m 17,7 km/h (3 Bft) W-SW 247 0 min 0,000 mm 0 W/m -1,9 C -9,5 C 40,2 km/h (6 Bft) 97 %
04.01.2017 08:40 -0,8 C -0,8 C -0,8 C 92 % 1015,4 hPa 0,0 l/m 16,1 km/h (3 Bft) SW 225 0 min 0,000 mm 0 W/m -1,9 C -8,6 C 45,1 km/h (6 Bft) 97 %
04.01.2017 08:50 -0,8 C -0,8 C -0,8 C 92 % 1015,6 hPa 0,2 l/m 11,3 km/h (2 Bft) W-SW 247 0 min 0,000 mm 7 W/m -1,9 C -5,4 C 27,4 km/h (4 Bft) 98 %
04.01.2017 09:00 -0,8 C -0,8 C -0,8 C 92 % 1015,3 hPa 0,0 l/m 16,1 km/h (3 Bft) SW 225 0 min 0,000 mm 5 W/m -1,9 C -8,6 C 35,4 km/h (5 Bft) 97 %
04.01.2017 09:10 -0,7 C -0,8 C -0,7 C 92 % 1015,6 hPa 0,2 l/m 12,9 km/h (3 Bft) W-SW 247 0 min 0,000 mm 7 W/m -1,8 C -6,5 C 30,6 km/h (5 Bft) 98 %
04.01.2017 09:20 -0,7 C -0,7 C -0,7 C 92 % 1015,6 hPa 0,2 l/m 12,9 km/h (3 Bft) W-SW 247 0 min 0,000 mm 5 W/m -1,8 C -6,5 C 30,6 km/h (5 Bft) 97 %
04.01.2017 09:30 -0,7 C -0,7 C -0,6 C 92 % 1015,5 hPa 0,2 l/m 14,5 km/h (3 Bft) W-SW 247 0 min 0,000 mm 11 W/m -1,8 C -7,5 C 37,0 km/h (5 Bft) 98 %
04.01.2017 09:40 -0,6 C -0,7 C -0,6 C 92 % 1015,4 hPa 0,2 l/m 14,5 km/h (3 Bft) W-SW 247 0 min 0,000 mm 11 W/m -1,7 C -7,4 C 30,6 km/h (5 Bft) 98 %
04.01.2017 09:50 -0,6 C -0,6 C -0,6 C 92 % 1015,5 hPa 0,2 l/m 16,1 km/h (3 Bft) W 270 0 min 0,000 mm 16 W/m -1,7 C -8,4 C 38,6 km/h (5 Bft) 98 %
04.01.2017 10:00 -0,5 C -0,6 C -0,5 C 92 % 1015,4 hPa 0,0 l/m 14,5 km/h (3 Bft) W-SW 247 0 min 0,000 mm 14 W/m -1,6 C -7,3 C 29,0 km/h (5 Bft) 89 %
04.01.2017 10:10 -0,5 C -0,6 C -0,5 C 92 % 1015,2 hPa 0,2 l/m 17,7 km/h (3 Bft) W-SW 247 0 min 0,000 mm 12 W/m -1,6 C -9,1 C 32,2 km/h (5 Bft) 98 %
04.01.2017 10:20 -0,5 C -0,6 C -0,5 C 92 % 1015,2 hPa 0,2 l/m 17,7 km/h (3 Bft) W-SW 247 0 min 0,000 mm 14 W/m -1,6 C -9,1 C 38,6 km/h (5 Bft) 98 %
04.01.2017 10:30 -0,5 C -0,5 C -0,5 C 92 % 1015,3 hPa 0,0 l/m 14,5 km/h (3 Bft) W-SW 247 0 min 0,000 mm 18 W/m -1,6 C -7,3 C 35,4 km/h (5 Bft) 98 %
04.01.2017 10:50 -0,4 C -0,5 C -0,4 C 92 % 1015,2 hPa 0,2 l/m 18,9 km/h (3 Bft) W 263 0 min 0,000 mm 18 W/m -1,5 C -9,6 C 37,0 km/h (5 Bft) 98 %
04.01.2017 11:00 -0,3 C -0,4 C -0,3 C 92 % 1015,3 hPa 0,2 l/m 18,0 km/h (3 Bft) W 273 0 min 0,000 mm 16 W/m -1,4 C -9,0 C 41,8 km/h (6 Bft) 97 %
04.01.2017 11:10 -0,3 C -0,3 C -0,3 C 92 % 1015,2 hPa 0,0 l/m 18,5 km/h (3 Bft) W-SW 253 0 min 0,025 mm 18 W/m -1,4 C -9,3 C 35,4 km/h (5 Bft) 98 %
04.01.2017 11:20 -0,2 C -0,3 C -0,2 C 92 % 1015,1 hPa 0,2 l/m 14,9 km/h (3 Bft) W 259 0 min 0,000 mm 14 W/m -1,3 C -7,2 C 30,6 km/h (5 Bft) 95 %
04.01.2017 11:30 -0,2 C -0,2 C -0,2 C 92 % 1015,0 hPa 0,2 l/m 19,6 km/h (3 Bft) W 265 0 min 0,000 mm 21 W/m -1,3 C -9,7 C 40,2 km/h (6 Bft) 91 %
04.01.2017 11:40 -0,2 C -0,2 C -0,2 C 92 % 1015,1 hPa 0,2 l/m 19,0 km/h (3 Bft) W 276 0 min 0,000 mm 18 W/m -1,3 C -9,4 C 37,0 km/h (5 Bft) 97 %
04.01.2017 11:50 -0,1 C -0,2 C -0,1 C 92 % 1014,9 hPa 0,0 l/m 21,4 km/h (4 Bft) W 281 0 min 0,000 mm 18 W/m -1,2 C -10,4 C 46,7 km/h (6 Bft) 98 %
04.01.2017 12:00 -0,2 C -0,2 C -0,1 C 92 % 1014,9 hPa 0,0 l/m 20,7 km/h (4 Bft) N-NW 331 0 min 0,000 mm 12 W/m -1,3 C -10,2 C 41,8 km/h (6 Bft) 97 %
04.01.2017 12:10 -0,2 C -0,2 C -0,1 C 92 % 1014,8 hPa 0,2 l/m 22,6 km/h (4 Bft) W 276 0 min 0,025 mm 16 W/m -1,3 C -11,0 C 38,6 km/h (5 Bft) 97 %
04.01.2017 12:20 -0,2 C -0,2 C -0,2 C 92 % 1014,7 hPa 0,0 l/m 17,7 km/h (3 Bft) SW 232 0 min 0,001 mm 12 W/m -1,3 C -8,7 C 33,8 km/h (5 Bft) 98 %
04.01.2017 12:30 -0,2 C -0,2 C -0,1 C 92 % 1014,7 hPa 0,0 l/m 22,4 km/h (4 Bft) W-NW 300 0 min 0,000 mm 11 W/m -1,3 C -11,0 C 41,8 km/h (6 Bft) 97 %
04.01.2017 12:40 -0,2 C -0,2 C -0,2 C 92 % 1014,9 hPa 0,0 l/m 19,5 km/h (3 Bft) S-SW 207 0 min 0,000 mm 9 W/m -1,3 C -9,7 C 40,2 km/h (6 Bft) 98 %
04.01.2017 12:50 -0,2 C -0,2 C -0,2 C 92 % 1014,7 hPa 0,0 l/m 18,0 km/h (3 Bft) W 269 0 min 0,000 mm 11 W/m -1,3 C -8,9 C 38,6 km/h (5 Bft) 88 %
04.01.2017 13:00 -0,1 C -0,2 C -0,1 C 93 % 1014,6 hPa 0,2 l/m 14,9 km/h (3 Bft) W-SW 242 0 min 0,025 mm 14 W/m -1,1 C -7,0 C 35,4 km/h (5 Bft) 98 %
04.01.2017 13:10 -0,1 C -0,1 C 0,0 C 92 % 1014,5 hPa 0,0 l/m 16,9 km/h (3 Bft) W-SW 244 0 min 0,000 mm 14 W/m -1,2 C -8,2 C 43,5 km/h (6 Bft) 98 %
04.01.2017 13:20 0,0 C -0,1 C 0,0 C 92 % 1014,4 hPa 0,0 l/m 14,8 km/h (3 Bft) W-NW 283 0 min 0,000 mm 14 W/m -1,1 C -6,9 C 30,6 km/h (5 Bft) 97 %
04.01.2017 13:30 0,1 C 0,0 C 0,1 C 92 % 1014,7 hPa 0,0 l/m 14,8 km/h (3 Bft) W 259 0 min 0,000 mm 0 W/m -1,0 C -6,7 C 33,8 km/h (5 Bft) 90 %
04.01.2017 13:40 0,1 C 0,1 C 0,1 C 92 % 1014,7 hPa 0,0 l/m 12,8 km/h (3 Bft) W 261 0 min 0,000 mm 5 W/m -1,0 C -5,4 C 27,4 km/h (4 Bft) 97 %
04.01.2017 13:50 0,1 C 0,1 C 0,1 C 92 % 1014,7 hPa 0,0 l/m 11,4 km/h (2 Bft) W 269 0 min 0,000 mm 5 W/m -1,0 C -4,4 C 25,7 km/h (4 Bft) 98 %
04.01.2017 14:00 0,1 C 0,1 C 0,1 C 92 % 1014,6 hPa 0,0 l/m 13,8 km/h (3 Bft) W-NW 295 0 min 0,000 mm 11 W/m -1,0 C -6,1 C 33,8 km/h (5 Bft) 97 %
04.01.2017 14:10 0,1 C 0,1 C 0,1 C 92 % 1014,4 hPa 0,0 l/m 12,9 km/h (3 Bft) W-SW 250 0 min 0,000 mm 7 W/m -1,0 C -5,5 C 27,4 km/h (4 Bft) 97 %
04.01.2017 14:20 0,1 C 0,1 C 0,1 C 92 % 1014,3 hPa 0,0 l/m 12,0 km/h (2 Bft) W-SW 248 0 min 0,000 mm 9 W/m -1,0 C -4,9 C 30,6 km/h (5 Bft) 98 %
04.01.2017 14:30 0,1 C 0,1 C 0,1 C 92 % 1014,1 hPa 0,0 l/m 12,2 km/h (2 Bft) W-SW 257 0 min 0,000 mm 7 W/m -1,0 C -5,0 C 32,2 km/h (5 Bft) 97 %
04.01.2017 14:40 0,2 C 0,1 C 0,2 C 92 % 1014,1 hPa 0,2 l/m 11,2 km/h (2 Bft) W 278 0 min 0,000 mm 21 W/m -0,9 C -4,2 C 27,4 km/h (4 Bft) 98 %
04.01.2017 14:50 0,2 C 0,2 C 0,2 C 92 % 1014,0 hPa 0,0 l/m 12,8 km/h (3 Bft) W 263 0 min 0,000 mm 14 W/m -0,9 C -5,3 C 27,4 km/h (4 Bft) 97 %
04.01.2017 15:00 0,2 C 0,2 C 0,3 C 92 % 1014,0 hPa 0,2 l/m 15,9 km/h (3 Bft) W 259 0 min 0,000 mm 0 W/m -0,9 C -7,3 C 30,6 km/h (5 Bft) 89 %
04.01.2017 15:10 0,2 C 0,2 C 0,2 C 92 % 1014,0 hPa 0,0 l/m 15,2 km/h (3 Bft) W-SW 254 0 min 0,000 mm 0 W/m -0,9 C -6,9 C 32,2 km/h (5 Bft) 98 %
04.01.2017 15:20 0,2 C 0,2 C 0,2 C 92 % 1014,0 hPa 0,0 l/m 14,8 km/h (3 Bft) W 272 0 min 0,000 mm 0 W/m -0,9 C -6,6 C 29,0 km/h (5 Bft) 98 %
04.01.2017 15:30 0,3 C 0,2 C 0,3 C 93 % 1014,3 hPa 0,2 l/m 14,5 km/h (3 Bft) NW 306 0 min 0,000 mm 0 W/m -0,7 C -6,3 C 27,4 km/h (4 Bft) 98 %
04.01.2017 15:40 0,3 C 0,3 C 0,3 C 92 % 1014,6 hPa 0,0 l/m 13,2 km/h (3 Bft) W-NW 291 0 min 0,000 mm 5 W/m -0,8 C -5,5 C 27,4 km/h (4 Bft) 98 %
04.01.2017 15:50 0,2 C 0,2 C 0,3 C 92 % 1014,6 hPa 0,0 l/m 12,8 km/h (3 Bft) W 262 0 min 0,000 mm 0 W/m -0,9 C -5,3 C 25,7 km/h (4 Bft) 98 %
04.01.2017 16:00 0,2 C 0,2 C 0,2 C 92 % 1014,5 hPa 0,0 l/m 10,7 km/h (2 Bft) W 269 0 min 0,000 mm 0 W/m -0,9 C -3,8 C 25,7 km/h (4 Bft) 97 %
04.01.2017 16:10 0,2 C 0,2 C 0,2 C 92 % 1014,6 hPa 0,0 l/m 11,8 km/h (2 Bft) W 265 0 min 0,000 mm 0 W/m -0,9 C -4,6 C 32,2 km/h (5 Bft) 98 %
04.01.2017 16:20 0,2 C 0,1 C 0,2 C 92 % 1014,7 hPa 0,0 l/m 11,9 km/h (2 Bft) W-SW 254 0 min 0,000 mm 0 W/m -0,9 C -4,7 C 25,7 km/h (4 Bft) 98 %
04.01.2017 16:30 0,2 C 0,1 C 0,2 C 92 % 1014,8 hPa 0,2 l/m 9,7 km/h (2 Bft) W 270 0 min 0,000 mm 0 W/m -0,9 C -3,0 C 25,7 km/h (4 Bft) 97 %
04.01.2017 16:40 0,2 C 0,2 C 0,2 C 92 % 1014,9 hPa 0,0 l/m 8,6 km/h (2 Bft) W-SW 253 0 min 0,000 mm 0 W/m -0,9 C -2,0 C 20,9 km/h (4 Bft) 98 %
04.01.2017 16:50 0,2 C 0,2 C 0,2 C 92 % 1014,8 hPa 0,2 l/m 8,8 km/h (2 Bft) W 267 0 min 0,000 mm 0 W/m -0,9 C -2,2 C 20,9 km/h (4 Bft) 97 %
04.01.2017 17:00 0,3 C 0,2 C 0,3 C 92 % 1014,8 hPa 0,0 l/m 7,6 km/h (2 Bft) W 266 0 min 0,000 mm 0 W/m -0,8 C -0,9 C 17,7 km/h (3 Bft) 98 %
04.01.2017 17:10 0,3 C 0,3 C 0,3 C 93 % 1014,6 hPa 0,0 l/m 8,3 km/h (2 Bft) W 263 0 min 0,000 mm 0 W/m -0,7 C -1,6 C 20,9 km/h (4 Bft) 97 %
04.01.2017 17:20 0,3 C 0,3 C 0,3 C 92 % 1014,4 hPa 0,0 l/m 7,3 km/h (2 Bft) W 269 0 min 0,000 mm 0 W/m -0,8 C -0,6 C 19,3 km/h (3 Bft) 98 %
04.01.2017 17:30 0,4 C 0,3 C 0,4 C 92 % 1014,6 hPa 0,0 l/m 10,0 km/h (2 Bft) W-SW 252 0 min 0,000 mm 0 W/m -0,7 C -3,0 C 24,1 km/h (4 Bft) 97 %
04.01.2017 17:40 0,4 C 0,3 C 0,4 C 92 % 1014,8 hPa 0,0 l/m 9,1 km/h (2 Bft) W 278 0 min 0,000 mm 0 W/m -0,7 C -2,2 C 24,1 km/h (4 Bft) 97 %
04.01.2017 17:50 0,4 C 0,4 C 0,4 C 92 % 1014,8 hPa 0,0 l/m 8,4 km/h (2 Bft) NW 313 0 min 0,000 mm 0 W/m -0,7 C -1,6 C 20,9 km/h (4 Bft) 97 %
04.01.2017 18:00 0,4 C 0,4 C 0,4 C 92 % 1015,0 hPa 0,0 l/m 5,8 km/h (2 Bft) W 262 0 min 0,000 mm 0 W/m -0,7 C 0,4 C 19,3 km/h (3 Bft) 98 %
04.01.2017 18:10 0,4 C 0,4 C 0,4 C 92 % 1014,9 hPa 0,0 l/m 8,5 km/h (2 Bft) W 266 0 min 0,000 mm 0 W/m -0,7 C -1,7 C 20,9 km/h (4 Bft) 97 %
04.01.2017 18:20 0,4 C 0,4 C 0,4 C 93 % 1015,0 hPa 0,0 l/m 7,7 km/h (2 Bft) W-NW 284 0 min 0,000 mm 0 W/m -0,6 C -0,9 C 19,3 km/h (3 Bft) 97 %
04.01.2017 18:30 0,4 C 0,4 C 0,4 C 93 % 1015,0 hPa 0,0 l/m 7,5 km/h (2 Bft) W-NW 300 0 min 0,000 mm 0 W/m -0,6 C -0,7 C 22,5 km/h (4 Bft) 98 %
04.01.2017 18:40 0,5 C 0,4 C 0,5 C 92 % 1014,9 hPa 0,0 l/m 9,4 km/h (2 Bft) W 260 0 min 0,000 mm 0 W/m -0,6 C -2,4 C 20,9 km/h (4 Bft) 98 %
04.01.2017 18:50 0,6 C 0,5 C 0,6 C 92 % 1015,0 hPa 0,0 l/m 8,7 km/h (2 Bft) W-NW 291 0 min 0,000 mm 0 W/m -0,5 C -1,7 C 19,3 km/h (3 Bft) 97 %
04.01.2017 19:00 0,6 C 0,5 C 0,6 C 92 % 1015,1 hPa 0,0 l/m 10,1 km/h (2 Bft) W 268 0 min 0,000 mm 0 W/m -0,5 C -2,9 C 25,7 km/h (4 Bft) 98 %
04.01.2017 19:10 0,6 C 0,6 C 0,6 C 92 % 1015,2 hPa 0,0 l/m 9,4 km/h (2 Bft) W 261 0 min 0,000 mm 0 W/m -0,5 C -2,3 C 24,1 km/h (4 Bft) 97 %
04.01.2017 19:20 0,6 C 0,6 C 0,6 C 92 % 1015,3 hPa 0,0 l/m 10,8 km/h (2 Bft) W-SW 244 0 min 0,000 mm 0 W/m -0,5 C -3,4 C 25,7 km/h (4 Bft) 98 %
04.01.2017 19:30 0,6 C 0,6 C 0,6 C 92 % 1015,3 hPa 0,0 l/m 6,7 km/h (2 Bft) W-SW 241 0 min 0,000 mm 0 W/m -0,5 C 0,3 C 20,9 km/h (4 Bft) 97 %
04.01.2017 19:40 0,6 C 0,6 C 0,7 C 92 % 1015,4 hPa 0,0 l/m 6,4 km/h (2 Bft) SW 225 0 min 0,000 mm 0 W/m -0,5 C 0,6 C 17,7 km/h (3 Bft) 97 %
04.01.2017 19:50 0,6 C 0,6 C 0,6 C 92 % 1015,3 hPa 0,0 l/m 6,1 km/h (2 Bft) W-SW 252 0 min 0,000 mm 0 W/m -0,5 C 0,6 C 27,4 km/h (4 Bft) 98 %
04.01.2017 20:00 0,6 C 0,6 C 0,7 C 93 % 1015,5 hPa 0,0 l/m 4,8 km/h (1 Bft) W 265 0 min 0,000 mm 0 W/m -0,4 C 0,6 C 12,9 km/h (3 Bft) 88 %
04.01.2017 20:10 0,7 C 0,6 C 0,7 C 93 % 1015,4 hPa 0,0 l/m 7,2 km/h (2 Bft) W 279 0 min 0,000 mm 0 W/m -0,3 C -0,1 C 17,7 km/h (3 Bft) 98 %
04.01.2017 20:20 0,7 C 0,7 C 0,7 C 93 % 1015,5 hPa 0,0 l/m 3,2 km/h (1 Bft) W 261 0 min 0,000 mm 0 W/m -0,3 C 0,7 C 16,1 km/h (3 Bft) 97 %
04.01.2017 20:30 0,7 C 0,7 C 0,7 C 93 % 1015,6 hPa 0,2 l/m 2,5 km/h (1 Bft) W 261 0 min 0,000 mm 0 W/m -0,3 C 0,7 C 14,5 km/h (3 Bft) 98 %
04.01.2017 20:40 0,7 C 0,7 C 0,7 C 93 % 1015,9 hPa 0,2 l/m 4,4 km/h (1 Bft) W 263 0 min 0,000 mm 0 W/m -0,3 C 0,7 C 19,3 km/h (3 Bft) 99 %
04.01.2017 20:50 0,7 C 0,6 C 0,7 C 93 % 1016,1 hPa 0,0 l/m 8,5 km/h (2 Bft) W 271 0 min 0,000 mm 0 W/m -0,3 C -1,4 C 19,3 km/h (3 Bft) 100 %
04.01.2017 21:00 0,6 C 0,6 C 0,7 C 93 % 1016,2 hPa 0,0 l/m 6,3 km/h (2 Bft) W-NW 296 0 min 0,000 mm 0 W/m -0,4 C 0,6 C 17,7 km/h (3 Bft) 100 %
04.01.2017 21:10 0,5 C 0,5 C 0,6 C 92 % 1016,2 hPa 0,2 l/m 3,2 km/h (1 Bft) W-NW 292 0 min 0,000 mm 0 W/m -0,6 C 0,5 C 11,3 km/h (2 Bft) 97 %
04.01.2017 21:20 0,5 C 0,5 C 0,6 C 92 % 1016,2 hPa 0,2 l/m 6,4 km/h (2 Bft) W-NW 292 0 min 0,000 mm 0 W/m -0,6 C 0,5 C 16,1 km/h (3 Bft) 98 %
04.01.2017 21:30 0,5 C 0,5 C 0,6 C 92 % 1016,2 hPa 0,0 l/m 6,4 km/h (2 Bft) W-NW 292 0 min 0,000 mm 0 W/m -0,6 C 0,5 C 16,1 km/h (3 Bft) 97 %
04.01.2017 21:40 0,5 C 0,5 C 0,5 C 92 % 1016,2 hPa 0,0 l/m 4,8 km/h (1 Bft) W-NW 292 0 min 0,000 mm 0 W/m -0,6 C 0,5 C 12,9 km/h (3 Bft) 97 %
04.01.2017 21:50 0,6 C 0,5 C 0,6 C 92 % 1016,1 hPa 0,0 l/m 6,4 km/h (2 Bft) NW 315 0 min 0,000 mm 0 W/m -0,5 C 0,6 C 17,7 km/h (3 Bft) 98 %
04.01.2017 22:00 0,4 C 0,4 C 0,6 C 92 % 1016,2 hPa 0,0 l/m 4,8 km/h (1 Bft) W-NW 292 0 min 0,000 mm 0 W/m -0,7 C 0,4 C 16,1 km/h (3 Bft) 97 %
04.01.2017 22:10 0,4 C 0,4 C 0,5 C 93 % 1016,5 hPa 0,0 l/m 3,2 km/h (1 Bft) W 270 0 min 0,000 mm 0 W/m -0,6 C 0,4 C 17,7 km/h (3 Bft) 98 %
04.01.2017 22:20 0,3 C 0,3 C 0,4 C 93 % 1016,7 hPa 0,0 l/m 3,2 km/h (1 Bft) W-NW 292 0 min 0,000 mm 0 W/m -0,7 C 0,3 C 11,3 km/h (2 Bft) 98 %
04.01.2017 22:30 0,2 C 0,2 C 0,3 C 92 % 1017,0 hPa 0,0 l/m 4,8 km/h (1 Bft) W-NW 292 0 min 0,000 mm 0 W/m -0,9 C 0,2 C 11,3 km/h (2 Bft) 96 %
04.01.2017 22:40 0,1 C 0,1 C 0,2 C 92 % 1017,3 hPa 0,0 l/m 3,2 km/h (1 Bft) W-NW 292 0 min 0,000 mm 0 W/m -1,0 C 0,1 C 12,9 km/h (3 Bft) 98 %
04.01.2017 22:50 0,1 C 0,1 C 0,1 C 92 % 1017,3 hPa 0,0 l/m 1,6 km/h (1 Bft) NW 315 0 min 0,000 mm 0 W/m -1,0 C 0,1 C 8,0 km/h (2 Bft) 86 %
04.01.2017 23:00 0,0 C 0,0 C 0,1 C 92 % 1017,4 hPa 0,0 l/m 3,2 km/h (1 Bft) NW 315 0 min 0,000 mm 0 W/m -1,1 C 0,0 C 9,7 km/h (2 Bft) 99 %
04.01.2017 23:10 0,1 C 0,0 C 0,1 C 92 % 1017,5 hPa 0,0 l/m 6,4 km/h (2 Bft) NW 315 0 min 0,000 mm 0 W/m -1,0 C 0,1 C 12,9 km/h (3 Bft) 99 %
04.01.2017 23:20 0,1 C 0,1 C 0,1 C 92 % 1017,8 hPa 0,0 l/m 9,7 km/h (2 Bft) NW 315 0 min 0,000 mm 0 W/m -1,0 C -3,1 C 19,3 km/h (3 Bft) 100 %
04.01.2017 23:30 0,2 C 0,1 C 0,2 C 92 % 1017,9 hPa 0,0 l/m 9,7 km/h (2 Bft) NW 315 0 min 0,000 mm 0 W/m -0,9 C -3,0 C 20,9 km/h (4 Bft) 100 %
04.01.2017 23:40 0,2 C 0,2 C 0,2 C 92 % 1017,8 hPa 0,0 l/m 6,4 km/h (2 Bft) W-NW 292 0 min 0,000 mm 0 W/m -0,9 C 0,2 C 16,1 km/h (3 Bft) 100 %
04.01.2017 23:50 0,2 C 0,2 C 0,2 C 92 % 1017,9 hPa 0,0 l/m 4,8 km/h (1 Bft) W-NW 292 0 min 0,000 mm 0 W/m -0,9 C 0,2 C 11,3 km/h (2 Bft) 100 %
_ Min-Zeit 01:20 01:20 01:30 00:00 14:50 - 22:50 - - - - - 01:20 04:10 22:50 22:50
Minimum _ -1,8 C -1,8 C -1,8 C 92 % 1014,0 hPa - 1,6 km/h (1 Bft) - - - - - -2,9 C -11,1 C 8,0 km/h (2 Bft) 86 %
_ Max-Zeit 19:40 20:20 19:40 01:50 00:00 05:50 12:10 - - 00:00 11:10 11:30 20:10 20:20 11:50 23:20
Maximum _ 0,7 C 0,7 C 0,7 C 93 % 1021,7 hPa 0,2 l/m 22,6 km/h
W (4 Bft)
- - 0 min 0,025 mm 21 W/m -0,3 C 0,7 C 46,7 km/h
W-SW (6 Bft)
100 %
Durchschnitt _ -0,4 C -0,4 C -0,4 C 92 % 1016,4 hPa #6,6 l/m 12,9 km/h (3 Bft) W-SW - #0 min. #0,076 mm 12 W/m -1,5 C -5,8 C 29,5 km/h (5 Bft) 97 %
PRIVATE WETTERSTATION BILLIGHEIM-ALLFELD - www.neckar-odenwald-wetter.de - Holger Sonntag